Starlink 30838

operational
NORAD ID: 58211 Int'l Des: 2023-170 Owner: SPXS Country: US Constellation: starlink
LEOCIRCULAR

Starlink 30838について

説明を読み込み中...

リアルタイム位置

3D地球を読み込み中...

次回通過

高度履歴

Altitude vs Time

uPlot chart will show altitude changes over time

軌道要素

1 58211U 23170F 25257.48721937 .00000441 00000-0 47692-4 0 9993
2 58211 43.0050 73.3910 0001207 263.3162 96.7544 15.02537591103778
Epoch: Sep 14, 2025 • Age: 27 hours

現在のステータス

高度 565.4 km
速度 7.58 km/s
衛星直下点 -26.86°S, 72.27°E
打ち上げ日 Nov 4, 2023
運用期間 1.8 years
タイプ internet

技術仕様

分類 Payload
質量 730.00 kg
乾燥質量 700.00 kg
総質量 730.00 kg
長さ 0.30 m
直径 4.10 m
スパン 29.00 m
形状 Box + pan
製造者 SPXS
バスタイプ Starlink V2M
フェーズステータス In Orbit
所有者/国 SPXS/US

大規模コンステレーション

Loading constellations...